Time,TemperatureF,DewpointF,PressureIn,WindDirection,WindDirectionDegrees,WindSpeedMPH,WindSpeedGustMPH,Humidity,HourlyPrecipIn,Conditions,Clouds,dailyrainin,SolarRadiationWatts/m^2,SoftwareType,DateUTC
2013-02-11 00:01:00,18.0,14.0,-100.00,WNW,303,5.0,16.0,83,0.00,,,0.00,0.000000,,2013-02-11 07:01:00,
2013-02-11 00:11:00,18.0,14.0,-100.00,WNW,303,5.0,16.0,83,0.00,,,0.00,0.000000,,2013-02-11 07:11:00,
2013-02-11 00:21:00,18.0,14.0,-100.00,WNW,303,5.0,16.0,83,0.00,,,0.00,0.000000,,2013-02-11 07:21:00,
2013-02-11 00:52:00,18.0,15.0,-100.00,WNW,292,4.0,14.0,86,0.00,,,0.00,0.000000,,2013-02-11 07:52:00,
2013-02-11 01:01:00,18.0,15.0,-100.00,WNW,292,4.0,14.0,86,0.00,,,0.00,0.000000,,2013-02-11 08:01:00,
2013-02-11 01:11:00,18.0,15.0,-100.00,WNW,292,4.0,14.0,86,0.00,,,0.00,0.000000,,2013-02-11 08:11:00,
2013-02-11 01:21:00,18.0,15.0,-100.00,WNW,292,4.0,14.0,86,0.00,,,0.00,0.000000,,2013-02-11 08:21:00,
2013-02-11 01:42:00,18.0,14.0,-100.00,WNW,294,5.0,12.0,85,0.00,,,0.00,0.000000,,2013-02-11 08:42:00,
2013-02-11 01:52:00,18.0,14.0,-100.00,WNW,294,5.0,12.0,85,0.00,,,0.00,0.000000,,2013-02-11 08:52:00,
2013-02-11 02:01:00,18.0,14.0,-100.00,WNW,294,5.0,12.0,85,0.00,,,0.00,0.000000,,2013-02-11 09:01:00,
2013-02-11 02:12:00,18.0,14.0,-100.00,WNW,294,5.0,12.0,85,0.00,,,0.00,0.000000,,2013-02-11 09:12:00,
2013-02-11 02:21:00,18.0,14.0,-100.00,WNW,294,5.0,12.0,85,0.00,,,0.00,0.000000,,2013-02-11 09:21:00,
2013-02-11 02:52:00,18.0,14.0,-100.00,WNW,301,4.0,12.0,85,0.00,,,0.00,0.000000,,2013-02-11 09:52:00,
2013-02-11 03:01:00,18.0,14.0,-100.00,WNW,301,4.0,12.0,85,0.00,,,0.00,0.000000,,2013-02-11 10:01:00,
2013-02-11 03:11:00,18.0,14.0,-100.00,WNW,301,4.0,12.0,85,0.00,,,0.00,0.000000,,2013-02-11 10:11:00,
2013-02-11 03:21:00,18.0,14.0,-100.00,WNW,301,4.0,12.0,85,0.00,,,0.00,0.000000,,2013-02-11 10:21:00,
2013-02-11 03:52:00,18.0,15.0,-100.00,WNW,289,5.0,12.0,87,0.00,,,0.00,0.000000,,2013-02-11 10:52:00,
2013-02-11 04:01:00,18.0,15.0,-100.00,WNW,289,5.0,12.0,87,0.00,,,0.00,0.000000,,2013-02-11 11:01:00,
2013-02-11 04:11:00,18.0,15.0,-100.00,WNW,289,5.0,12.0,87,0.00,,,0.00,0.000000,,2013-02-11 11:11:00,
2013-02-11 04:22:00,18.0,15.0,-100.00,WNW,289,5.0,12.0,87,0.00,,,0.00,0.000000,,2013-02-11 11:22:00,
2013-02-11 04:52:00,17.0,14.0,-100.00,WNW,298,3.0,12.0,86,0.00,,,0.00,0.000000,,2013-02-11 11:52:00,
2013-02-11 05:03:00,17.0,14.0,-100.00,WNW,298,3.0,12.0,86,0.00,,,0.00,0.000000,,2013-02-11 12:03:00,
2013-02-11 05:12:00,17.0,14.0,-100.00,WNW,298,3.0,12.0,86,0.00,,,0.00,0.000000,,2013-02-11 12:12:00,
2013-02-11 05:22:00,17.0,14.0,-100.00,WNW,298,3.0,12.0,86,0.00,,,0.00,0.000000,,2013-02-11 12:22:00,
2013-02-11 05:52:00,17.0,14.0,-100.00,WNW,286,4.0,10.0,86,0.00,,,-99.99,0.000000,,2013-02-11 12:52:00,
2013-02-11 06:02:00,17.0,14.0,-100.00,WNW,286,4.0,10.0,86,0.00,,,-99.99,0.000000,,2013-02-11 13:02:00,
2013-02-11 06:12:00,17.0,14.0,-100.00,WNW,286,4.0,10.0,86,0.00,,,-99.99,0.000000,,2013-02-11 13:12:00,
2013-02-11 06:22:00,17.0,14.0,-100.00,WNW,286,4.0,10.0,86,0.00,,,-99.99,0.000000,,2013-02-11 13:22:00,
2013-02-11 06:52:00,17.0,14.0,-100.00,WSW,257,2.0,8.0,86,0.00,,,-99.99,0.000000,,2013-02-11 13:52:00,
2013-02-11 07:02:00,17.0,14.0,-100.00,WSW,257,2.0,8.0,86,0.00,,,-99.99,0.000000,,2013-02-11 14:02:00,
2013-02-11 07:11:00,17.0,14.0,-100.00,WSW,257,2.0,8.0,86,0.00,,,-99.99,0.000000,,2013-02-11 14:11:00,
2013-02-11 07:22:00,17.0,14.0,-100.00,WSW,257,2.0,8.0,86,0.00,,,-99.99,0.000000,,2013-02-11 14:22:00,
2013-02-11 07:53:00,15.0,12.0,-100.00,SW,235,3.0,7.0,89,0.00,,,0.00,0.000000,,2013-02-11 14:53:00,
2013-02-11 08:02:00,15.0,12.0,-100.00,SW,235,3.0,7.0,89,0.00,,,0.00,0.000000,,2013-02-11 15:02:00,
2013-02-11 08:11:00,15.0,12.0,-100.00,SW,235,3.0,7.0,89,0.00,,,0.00,0.000000,,2013-02-11 15:11:00,
2013-02-11 08:22:00,15.0,12.0,-100.00,SW,235,3.0,7.0,89,0.00,,,0.00,0.000000,,2013-02-11 15:22:00,
2013-02-11 08:42:00,14.0,8.0,-100.00,SW,231,4.0,8.0,77,0.00,,,0.00,2.000000,,2013-02-11 15:42:00,
2013-02-11 08:52:00,14.0,8.0,-100.00,SW,231,4.0,8.0,77,0.00,,,0.00,2.000000,,2013-02-11 15:52:00,
2013-02-11 09:02:00,14.0,8.0,-100.00,SW,231,4.0,8.0,77,0.00,,,0.00,2.000000,,2013-02-11 16:02:00,
2013-02-11 09:11:00,14.0,8.0,-100.00,SW,231,4.0,8.0,77,0.00,,,0.00,2.000000,,2013-02-11 16:11:00,
2013-02-11 09:22:00,14.0,8.0,-100.00,SW,231,4.0,8.0,77,0.00,,,0.00,2.000000,,2013-02-11 16:22:00,
2013-02-11 09:42:00,19.0,9.0,-100.00,SW,236,5.0,8.0,65,0.00,,,0.00,91.000000,,2013-02-11 16:42:00,
2013-02-11 09:52:00,19.0,9.0,-100.00,SW,236,5.0,8.0,65,0.00,,,0.00,91.000000,,2013-02-11 16:52:00,
2013-02-11 10:02:00,19.0,9.0,-100.00,SW,236,5.0,8.0,65,0.00,,,0.00,91.000000,,2013-02-11 17:02:00,
2013-02-11 10:11:00,19.0,9.0,-100.00,SW,236,5.0,8.0,65,0.00,,,0.00,91.000000,,2013-02-11 17:11:00,
2013-02-11 10:21:00,19.0,9.0,-100.00,SW,236,5.0,8.0,65,0.00,,,0.00,91.000000,,2013-02-11 17:21:00,
2013-02-11 10:42:00,24.0,13.0,-100.00,SW,236,5.0,11.0,62,0.00,,,0.00,289.000000,,2013-02-11 17:42:00,
2013-02-11 10:53:00,24.0,13.0,-100.00,SW,236,5.0,11.0,62,0.00,,,0.00,289.000000,,2013-02-11 17:53:00,
2013-02-11 11:02:00,24.0,13.0,-100.00,SW,236,5.0,11.0,62,0.00,,,0.00,289.000000,,2013-02-11 18:02:00,
2013-02-11 11:11:00,24.0,13.0,-100.00,SW,236,5.0,11.0,62,0.00,,,0.00,289.000000,,2013-02-11 18:11:00,
2013-02-11 11:21:00,24.0,13.0,-100.00,SW,236,5.0,11.0,62,0.00,,,0.00,289.000000,,2013-02-11 18:21:00,
2013-02-11 11:42:00,29.0,16.0,-100.00,WSW,239,6.0,11.0,58,0.00,,,0.00,448.000000,,2013-02-11 18:42:00,
2013-02-11 11:53:00,29.0,16.0,-100.00,WSW,239,6.0,11.0,58,0.00,,,0.00,448.000000,,2013-02-11 18:53:00,
2013-02-11 12:02:00,29.0,16.0,-100.00,WSW,239,6.0,11.0,58,0.00,,,0.00,448.000000,,2013-02-11 19:02:00,
2013-02-11 12:11:00,29.0,16.0,-100.00,WSW,239,6.0,11.0,58,0.00,,,0.00,448.000000,,2013-02-11 19:11:00,
2013-02-11 12:21:00,29.0,16.0,-100.00,WSW,239,6.0,11.0,58,0.00,,,0.00,448.000000,,2013-02-11 19:21:00,
2013-02-11 13:52:00,34.0,18.0,-100.00,North,9,7.0,14.0,52,-99.99,,,0.00,614.000000,,2013-02-11 20:52:00,
2013-02-11 14:02:00,34.0,18.0,-100.00,North,9,7.0,14.0,52,-99.99,,,0.00,614.000000,,2013-02-11 21:02:00,
2013-02-11 14:11:00,34.0,18.0,-100.00,North,9,7.0,14.0,52,-99.99,,,0.00,614.000000,,2013-02-11 21:11:00,
2013-02-11 14:22:00,34.0,18.0,-100.00,North,9,7.0,14.0,52,-99.99,,,0.00,614.000000,,2013-02-11 21:22:00,
2013-02-11 14:42:00,34.0,15.0,-100.00,WSW,257,7.0,21.0,46,0.00,,,0.00,607.000000,,2013-02-11 21:42:00,
2013-02-11 14:52:00,34.0,15.0,-100.00,WSW,257,7.0,21.0,46,0.00,,,0.00,607.000000,,2013-02-11 21:52:00,
2013-02-11 15:02:00,34.0,15.0,-100.00,WSW,257,7.0,21.0,46,0.00,,,0.00,607.000000,,2013-02-11 22:02:00,
2013-02-11 15:11:00,34.0,15.0,-100.00,WSW,257,7.0,21.0,46,0.00,,,0.00,607.000000,,2013-02-11 22:11:00,
2013-02-11 15:21:00,34.0,15.0,-100.00,WSW,257,7.0,21.0,46,0.00,,,0.00,607.000000,,2013-02-11 22:21:00,
2013-02-11 15:52:00,38.0,18.0,-100.00,WSW,252,6.0,18.0,44,0.00,,,0.00,539.000000,,2013-02-11 22:52:00,
2013-02-11 16:02:00,38.0,18.0,-100.00,WSW,252,6.0,18.0,44,0.00,,,0.00,539.000000,,2013-02-11 23:02:00,
2013-02-11 16:11:00,38.0,18.0,-100.00,WSW,252,6.0,18.0,44,0.00,,,0.00,539.000000,,2013-02-11 23:11:00,
2013-02-11 16:21:00,38.0,18.0,-100.00,WSW,252,6.0,18.0,44,0.00,,,0.00,539.000000,,2013-02-11 23:21:00,
2013-02-11 16:52:00,37.0,21.0,-100.00,WSW,253,5.0,17.0,51,0.00,,,0.00,397.000000,,2013-02-11 23:52:00,
2013-02-11 17:02:00,37.0,21.0,-100.00,WSW,253,5.0,17.0,51,0.00,,,0.00,397.000000,,2013-02-12 00:02:00,
2013-02-11 17:11:00,37.0,21.0,-100.00,WSW,253,5.0,17.0,51,0.00,,,0.00,397.000000,,2013-02-12 00:11:00,
2013-02-11 17:22:00,37.0,21.0,-100.00,WSW,253,5.0,17.0,51,0.00,,,0.00,397.000000,,2013-02-12 00:22:00,
2013-02-11 17:52:00,32.0,18.0,-100.00,WSW,237,5.0,14.0,56,0.00,,,0.00,150.000000,,2013-02-12 00:52:00,
2013-02-11 18:02:00,32.0,18.0,-100.00,WSW,237,5.0,14.0,56,0.00,,,0.00,150.000000,,2013-02-12 01:02:00,
2013-02-11 18:11:00,32.0,18.0,-100.00,WSW,237,5.0,14.0,56,0.00,,,0.00,150.000000,,2013-02-12 01:11:00,
2013-02-11 18:21:00,32.0,18.0,-100.00,WSW,237,5.0,14.0,56,0.00,,,0.00,150.000000,,2013-02-12 01:21:00,
2013-02-11 18:52:00,31.0,19.0,-100.00,WSW,253,3.0,11.0,61,0.00,,,0.00,28.000000,,2013-02-12 01:52:00,
2013-02-11 19:02:00,31.0,19.0,-100.00,WSW,253,3.0,11.0,61,0.00,,,0.00,28.000000,,2013-02-12 02:02:00,
2013-02-11 19:12:00,31.0,19.0,-100.00,WSW,253,3.0,11.0,61,0.00,,,0.00,28.000000,,2013-02-12 02:12:00,
2013-02-11 19:21:00,31.0,19.0,-100.00,WSW,253,3.0,11.0,61,0.00,,,0.00,28.000000,,2013-02-12 02:21:00,
2013-02-11 19:53:00,30.0,18.0,-100.00,WSW,241,3.0,9.0,61,0.00,,,0.00,0.000000,,2013-02-12 02:53:00,
2013-02-11 20:02:00,30.0,18.0,-100.00,WSW,241,3.0,9.0,61,0.00,,,0.00,0.000000,,2013-02-12 03:02:00,
2013-02-11 20:11:00,30.0,18.0,-100.00,WSW,241,3.0,9.0,61,0.00,,,0.00,0.000000,,2013-02-12 03:11:00,
2013-02-11 20:21:00,30.0,18.0,-100.00,WSW,241,3.0,9.0,61,0.00,,,0.00,0.000000,,2013-02-12 03:21:00,
2013-02-11 20:42:00,30.0,19.0,-100.00,WSW,241,4.0,9.0,64,0.00,,,0.00,0.000000,,2013-02-12 03:42:00,
2013-02-11 20:52:00,30.0,19.0,-100.00,WSW,241,4.0,9.0,64,0.00,,,0.00,0.000000,,2013-02-12 03:52:00,
2013-02-11 21:01:00,30.0,19.0,-100.00,WSW,241,4.0,9.0,64,0.00,,,0.00,0.000000,,2013-02-12 04:01:00,
2013-02-11 21:11:00,30.0,19.0,-100.00,WSW,241,4.0,9.0,64,0.00,,,0.00,0.000000,,2013-02-12 04:11:00,
2013-02-11 21:21:00,30.0,19.0,-100.00,WSW,241,4.0,9.0,64,0.00,,,0.00,0.000000,,2013-02-12 04:21:00,
2013-02-11 21:52:00,28.0,19.0,-100.00,WSW,251,3.0,10.0,69,0.00,,,0.00,0.000000,,2013-02-12 04:52:00,
2013-02-11 22:01:00,28.0,19.0,-100.00,WSW,251,3.0,10.0,69,0.00,,,0.00,0.000000,,2013-02-12 05:01:00,
2013-02-11 22:11:00,28.0,19.0,-100.00,WSW,251,3.0,10.0,69,0.00,,,0.00,0.000000,,2013-02-12 05:11:00,
2013-02-11 22:21:00,28.0,19.0,-100.00,WSW,251,3.0,10.0,69,0.00,,,0.00,0.000000,,2013-02-12 05:21:00,
2013-02-11 22:52:00,26.0,18.0,-100.00,WSW,256,4.0,8.0,71,0.00,,,-99.99,0.000000,,2013-02-12 05:52:00,
2013-02-11 23:01:00,26.0,18.0,-100.00,WSW,256,4.0,8.0,71,0.00,,,-99.99,0.000000,,2013-02-12 06:01:00,
2013-02-11 23:12:00,26.0,18.0,-100.00,WSW,256,4.0,8.0,71,0.00,,,-99.99,0.000000,,2013-02-12 06:12:00,
2013-02-11 23:21:00,26.0,18.0,-100.00,WSW,256,4.0,8.0,71,0.00,,,-99.99,0.000000,,2013-02-12 06:21:00,
2013-02-11 23:52:00,25.0,18.0,-100.00,West,265,5.0,8.0,73,0.00,,,0.00,0.000000,,2013-02-12 06:52:00,